Temperature
-7 -7 -7 -6 -6 -5 -4 -3 -3 -1 1 3 5 7 8 8 9 10 10 11 11 12 12 12 12 13 13 13 13 13 13 13 13 13 13 12 12 13
-7 -7 -7 -6 -6 -5 -4 -3 -3 -2 -0 2 4 6 7 8 8 9 9 10 10 11 12 12 12 12 12 13 13 13 13 13 13 12 12 12 12 12
-8 -7 -7 -7 -6 -5 -4 -3 -2 -2 -1 1 3 5 6 7 7 8 9 9 10 10 11 12 12 12 12 12 12 13 13 12 12 11 11 11 11 11
-8 -8 -7 -7 -6 -5 -4 -3 -2 -1 0 1 2 4 5 6 6 7 8 9 9 10 10 11 12 12 12 12 12 12 12 12 12 11 11 11 10 10
-8 -8 -7 -7 -6 -5 -4 -3 -2 -1 -0 1 2 3 3 5 6 6 7 8 9 9 10 10 11 11 12 12 12 12 12 12 11 11 10 10 9 9
-8 -8 -7 -7 -6 -5 -4 -3 -2 -1 -1 -0 1 2 3 4 5 6 6 7 8 8 9 9 9 10 11 11 11 11 11 11 10 10 9 9 8 8
-9 -8 -8 -7 -7 -6 -5 -4 -3 -2 -1 -1 0 1 2 3 4 5 6 6 7 7 8 8 9 9 9 9 10 10 10 9 9 8 8 8 7 7
-9 -9 -9 -8 -8 -7 -7 -6 -4 -3 -3 -2 -1 0 1 2 3 4 5 6 6 7 7 8 8 8 8 8 9 9 8 8 7 7 6 6 6 6
-9 -9 -9 -9 -9 -8 -8 -7 -7 -6 -5 -4 -2 -1 -0 1 2 3 4 5 6 6 7 7 7 7 6 6 6 6 6 5 5 5 5 5 5 5
-10 -10 -10 -10 -10 -10 -9 -8 -8 -7 -7 -6 -5 -4 -3 -2 1 2 3 4 5 6 6 6 5 5 5 5 4 4 4 4 4 4 4 4 4 5
-10 -10 -10 -10 -10 -10 -10 -10 -8 -7 -7 -7 -6 -5 -4 -2 0 2 3 4 4 4 5 5 4 4 4 4 3 3 3 3 3 3 3 4 4 4
-11 -11 -11 -11 -10 -10 -11 -11 -10 -9 -7 -6 -5 -4 -3 -2 -0 1 2 3 3 3 4 3 3 3 2 2 2 2 2 2 3 3 3 3 4 4
-12 -12 -12 -11 -11 -11 -11 -11 -12 -10 -9 -8 -7 -6 -5 -4 -2 -1 0 1 2 3 2 3 2 2 2 1 1 1 1 2 2 2 3 3 3 3
-13 -13 -12 -12 -12 -12 -12 -12 -11 -10 -10 -9 -8 -8 -8 -7 -6 -4 -2 -1 1 1 1 2 2 2 1 0 0 0 1 1 1 2 2 2 2 2
-14 -13 -13 -13 -13 -13 -13 -12 -11 -11 -11 -11 -11 -11 -10 -9 -8 -6 -4 -3 -1 -0 0 1 1 1 1 1 0 -0 0 0 1 1 1 1 1 1
-14 -14 -14 -14 -14 -14 -13 -13 -13 -13 -12 -12 -12 -12 -10 -9 -8 -7 -6 -4 -3 -2 -1 -0 0 0 0 1 1 0 0 0 0 0 0 0 0 0
-14 -14 -14 -14 -14 -14 -14 -14 -14 -13 -13 -12 -12 -12 -11 -11 -10 -9 -8 -7 -6 -5 -4 -2 -1 -1 -0 -0 -0 -0 -1 -1 -1 -0 -0 -0 0 0
-15 -15 -15 -15 -15 -15 -15 -15 -15 -15 -14 -14 -13 -12 -12 -11 -11 -11 -10 -9 -9 -8 -8 -7 -5 -3 -2 -3 -4 -3 -2 -2 -2 -1 -1 -1 -1 -1
-15 -15 -15 -15 -15 -15 -15 -15 -15 -15 -15 -14 -14 -13 -12 -12 -11 -11 -11 -11 -11 -10 -10 -9 -8 -6 -5 -6 -8 -7 -5 -4 -3 -3 -2 -2 -2 -2
-15 -15 -15 -15 -15 -15 -15 -15 -16 -15 -15 -15 -14 -14 -13 -13 -12 -12 -11 -11 -10 -10 -10 -9 -8 -8 -6 -7 -8 -8 -7 -6 -5 -4 -4 -3 -3 -3
-14 -15 -15 -15 -15 -15 -15 -15 -15 -15 -15 -15 -15 -14 -14 -14 -13 -13 -12 -12 -11 -10 -10 -10 -10 -9 -9 -8 -8 -9 -8 -7 -7 -6 -6 -5 -5 -5
-14 -14 -14 -14 -15 -15 -15 -15 -14 -14 -14 -14 -14 -14 -14 -14 -14 -14 -13 -13 -12 -12 -11 -11 -11 -10 -10 -9 -9 -9 -9 -9 -8 -8 -7 -7 -6 -6
-14 -14 -14 -14 -14 -14 -14 -14 -14 -14 -14 -14 -14 -14 -14 -14 -14 -14 -14 -14 -13 -13 -13 -12 -12 -11 -11 -10 -10 -10 -10 -10 -9 -9 -9 -8 -8 -8
Wind_Speed
14 13 11 10 11 12 12 13 14 15 16 10 6 5 5 2 7 8 8 13 14 15 15 15 15 18 21 23 26 29 31 30 30 31 30 27 25 23
13 12 12 10 12 12 12 13 14 15 14 9 8 9 10 8 3 2 5 9 13 16 17 18 18 18 20 22 24 27 28 29 32 33 32 30 29 26
13 13 14 14 13 12 12 13 14 15 16 12 10 10 9 8 5 2 4 5 7 16 19 20 19 19 19 20 22 25 29 33 34 35 35 33 31 29
13 14 14 13 15 13 12 12 12 12 11 11 8 8 8 6 6 5 4 4 5 11 17 19 20 20 20 21 24 29 33 35 36 35 35 33 31 29
12 13 14 15 14 13 13 11 10 9 6 7 7 6 6 5 5 4 4 4 3 6 13 16 18 19 20 23 27 31 34 36 35 34 34 32 31 29
10 12 13 14 14 15 11 9 8 7 6 6 7 5 5 5 4 4 4 4 3 3 4 7 14 19 23 27 30 31 33 35 36 35 33 32 30 28
8 11 14 18 21 18 14 14 11 5 4 5 5 4 3 3 4 4 5 4 2 3 5 5 9 10 14 25 30 34 36 37 36 35 33 32 29 27
9 11 15 17 21 25 26 25 24 15 9 5 3 3 3 4 4 4 5 5 4 3 6 6 9 11 10 13 28 35 36 36 35 35 33 32 29 26
11 11 13 16 19 16 21 24 23 27 23 13 9 8 7 6 7 6 6 6 4 3 8 7 8 11 10 20 31 34 35 34 33 33 32 31 29 26
12 14 14 15 18 18 16 17 17 18 20 14 12 12 12 11 7 6 4 6 6 3 5 8 8 10 12 16 30 32 32 32 32 32 31 29 28 26
13 15 17 16 25 26 18 16 16 17 21 25 24 21 24 25 19 6 3 12 9 3 2 6 8 11 11 12 21 31 32 32 31 30 30 27 25 22
11 14 21 23 27 26 17 16 16 16 17 18 19 22 19 22 27 17 8 6 10 5 1 6 8 8 8 7 9 17 23 27 28 26 25 23 20 17
10 10 12 25 27 27 22 16 19 16 14 15 15 15 16 15 17 17 15 7 4 5 2 4 6 5 7 6 6 8 13 15 17 18 18 18 16 15
9 8 12 24 24 26 21 23 25 20 12 13 13 15 15 15 13 15 16 15 13 11 8 6 5 6 9 7 6 6 9 11 12 11 13 16 16 15
9 17 20 22 21 17 24 26 20 14 13 13 13 13 12 14 14 13 15 14 18 21 20 15 10 8 7 8 8 7 6 6 8 7 7 8 7 7
10 15 20 21 18 19 19 17 14 14 13 12 12 11 11 12 14 14 14 13 13 17 21 24 16 12 11 12 11 10 8 7 6 6 5 6 7 7
9 9 9 11 12 12 12 12 12 13 13 12 12 12 12 12 13 13 13 13 13 14 14 13 18 21 17 13 11 11 11 10 7 5 5 4 4 4
11 6 9 10 11 11 11 11 11 11 11 11 11 11 11 11 11 11 12 12 12 12 12 10 7 9 11 14 16 11 10 8 5 5 4 4 3 5
7 5 5 6 7 8 8 7 7 8 8 8 9 9 9 9 10 11 10 10 11 11 11 10 9 6 9 8 8 13 7 5 4 4 4 4 2 2
4 4 4 5 5 5 6 6 5 5 5 5 6 6 7 8 8 9 9 9 9 9 10 10 10 9 7 5 4 4 11 6 4 4 4 3 3 5
5 5 4 4 4 4 4 4 5 4 4 4 5 5 5 5 6 7 7 11 9 8 8 7 6 9 4 4 6 4 4 7 5 3 2 2 2 3
5 5 5 5 4 4 4 4 4 4 5 4 4 4 4 4 4 5 5 5 5 5 5 4 4 6 5 6 6 4 3 3 3 1 3 4 2 0
5 5 5 5 4 3 3 4 4 4 4 4 3 3 3 3 3 3 3 4 4 4 4 3 3 3 4 3 3 2 1 1 1 2 2 3 6 8
Wind_Direction
303 297 296 294 288 279 268 258 260 270 279 284 285 296 323 268 210 201 207 211 217 226 228 226 223 220 217 213 204 196 190 182 173 168 165 163 154 143
302 300 302 298 293 283 270 259 250 254 263 280 289 307 325 326 282 199 221 217 220 227 234 235 230 224 220 215 205 194 183 173 166 163 158 152 142 135
312 314 308 302 296 290 278 263 250 245 253 265 273 281 293 305 305 289 266 234 225 224 230 233 229 223 219 212 198 182 170 164 160 158 154 149 143 140
321 318 314 311 302 294 286 277 263 247 247 258 265 265 260 264 253 236 243 231 215 224 225 225 223 220 215 202 182 167 161 157 154 153 149 145 143 141
316 320 320 316 312 306 292 279 274 265 259 267 270 259 253 246 235 226 227 221 203 216 219 215 208 198 186 173 163 156 151 148 145 143 141 140 140 138
327 331 327 327 333 332 327 318 288 267 259 264 268 262 255 247 218 207 211 205 187 176 170 168 168 162 157 152 148 143 138 137 136 135 135 134 133 134
343 351 348 356 3 3 5 0 352 326 286 264 264 265 259 244 223 197 194 173 139 161 140 133 137 138 141 137 133 132 131 130 129 129 128 125 125 126
12 11 3 3 13 10 14 18 20 22 15 4 350 343 341 318 285 224 184 166 178 180 137 123 118 117 118 122 127 126 124 124 125 125 123 121 119 118
23 21 15 10 22 14 12 17 19 25 33 33 26 13 353 338 323 277 214 171 152 153 133 112 108 113 116 123 122 122 123 124 125 125 125 124 123 123
22 22 20 12 24 24 15 18 18 18 22 27 26 20 10 359 332 290 257 130 103 74 126 115 110 109 114 122 125 124 125 125 126 126 126 126 127 127
19 17 21 19 24 28 19 19 21 17 15 21 25 27 25 22 22 7 197 160 147 116 47 107 116 102 89 94 112 118 122 124 126 128 129 128 126 121
15 11 16 23 24 30 24 19 24 18 11 11 17 19 21 23 27 23 348 181 150 135 56 116 127 115 93 59 73 103 113 117 119 120 122 124 124 120
12 6 10 22 24 28 30 26 28 26 18 16 16 17 18 22 26 25 17 14 109 104 68 105 117 97 110 112 64 63 93 101 102 104 105 107 114 125
5 359 11 23 24 26 29 28 29 27 23 23 22 20 17 15 17 25 27 31 42 58 49 65 96 113 123 119 111 89 85 91 99 97 94 95 94 98
8 14 19 23 24 23 26 28 26 25 24 27 24 20 16 14 18 24 26 32 42 46 46 56 83 96 101 122 126 130 105 87 89 93 93 95 98 102
14 16 20 23 27 25 26 26 24 27 28 24 21 17 17 23 28 28 30 28 43 46 43 48 58 81 98 103 114 117 114 118 110 95 94 97 101 101
28 18 17 17 19 20 22 24 24 23 27 23 20 21 24 29 34 35 37 38 45 49 48 51 61 70 72 83 96 100 104 103 99 90 92 87 69 95
30 21 22 19 17 16 18 20 22 24 23 25 25 24 25 29 35 41 45 45 46 43 39 33 59 80 77 58 48 90 95 97 92 81 81 89 65 41
25 10 9 9 11 10 10 10 16 20 17 21 25 23 27 32 38 42 47 53 54 50 41 34 34 68 93 95 51 45 71 74 73 71 69 76 74 6
5 4 2 359 1 3 2 0 358 7 12 18 22 22 26 33 41 44 46 52 60 62 54 46 46 53 73 94 99 60 52 59 60 60 50 37 354 316
349 352 353 354 353 353 354 353 351 356 9 19 27 25 24 34 40 39 44 59 60 61 65 55 41 49 55 76 89 81 54 71 79 95 79 40 356 342
334 336 336 337 341 347 342 341 343 350 2 12 13 23 24 31 41 47 47 52 52 52 61 58 36 43 54 81 91 87 65 23 2 304 219 209 176 78
308 308 309 314 319 327 338 342 341 338 346 352 353 2 14 21 25 35 39 50 60 51 50 51 40 48 63 82 94 92 70 22 51 38 348 296 257 261
Height
1442 1439 1436 1433 1430 1428 1427 1428 1428 1423 1413 1409 1414 1417 1421 1425 1428 1432 1435 1438 1443 1447 1451 1455 1460 1465 1471 1477 1482 1488 1493 1498 1504 1510 1516 1522 1526 1530
1437 1434 1430 1427 1423 1420 1419 1419 1419 1419 1414 1407 1408 1410 1414 1419 1423 1427 1430 1434 1437 1440 1444 1448 1453 1458 1464 1470 1475 1481 1486 1492 1498 1503 1510 1515 1519 1524
1433 1429 1425 1421 1417 1414 1411 1410 1410 1410 1408 1405 1406 1408 1411 1414 1418 1423 1426 1429 1432 1434 1438 1441 1445 1451 1457 1462 1468 1474 1479 1485 1492 1498 1503 1508 1514 1520
1429 1425 1421 1416 1412 1408 1404 1402 1401 1401 1402 1401 1402 1404 1406 1410 1414 1418 1421 1424 1427 1429 1432 1435 1439 1444 1449 1454 1461 1467 1473 1479 1486 1492 1497 1503 1510 1516
1427 1422 1418 1413 1408 1402 1398 1395 1393 1393 1394 1396 1396 1399 1401 1405 1408 1412 1415 1419 1421 1423 1425 1428 1432 1437 1442 1447 1453 1460 1467 1473 1480 1486 1493 1499 1506 1512
1425 1420 1416 1411 1405 1398 1393 1389 1387 1387 1388 1390 1391 1393 1396 1399 1402 1406 1410 1414 1416 1418 1420 1423 1426 1430 1436 1441 1447 1454 1461 1468 1475 1482 1488 1495 1502 1509
1423 1419 1414 1410 1403 1397 1391 1386 1383 1382 1383 1384 1387 1388 1391 1393 1396 1400 1405 1408 1411 1414 1416 1419 1422 1426 1432 1438 1444 1450 1457 1463 1470 1478 1485 1492 1500 1507
1422 1419 1414 1409 1403 1396 1391 1385 1382 1380 1379 1379 1381 1382 1384 1388 1391 1395 1400 1403 1407 1410 1412 1416 1419 1424 1429 1435 1440 1447 1454 1460 1468 1476 1484 1492 1499 1506
1423 1419 1415 1410 1404 1397 1391 1386 1382 1379 1378 1376 1377 1378 1380 1382 1384 1388 1393 1398 1402 1406 1408 1411 1415 1421 1427 1434 1440 1446 1453 1460 1467 1475 1483 1490 1496 1503
1425 1422 1418 1412 1407 1400 1394 1388 1383 1379 1378 1376 1376 1376 1377 1377 1379 1383 1387 1393 1398 1402 1404 1407 1413 1421 1428 1435 1443 1449 1456 1463 1469 1476 1483 1490 1496 1502
1427 1424 1421 1416 1411 1404 1397 1391 1386 1383 1380 1378 1376 1374 1373 1373 1374 1379 1384 1387 1391 1395 1398 1402 1410 1418 1427 1436 1445 1453 1459 1465 1472 1478 1484 1490 1496 1500
1430 1427 1424 1420 1414 1408 1402 1396 1391 1386 1383 1379 1376 1373 1372 1371 1372 1374 1378 1382 1384 1389 1393 1399 1407 1414 1427 1437 1446 1454 1461 1467 1473 1478 1483 1489 1494 1499
1433 1430 1427 1424 1418 1413 1408 1403 1399 1393 1388 1383 1380 1376 1373 1372 1371 1372 1374 1376 1379 1384 1390 1396 1403 1410 1420 1436 1445 1452 1458 1464 1470 1476 1482 1488 1493 1497
1437 1434 1431 1427 1422 1417 1413 1408 1404 1398 1393 1389 1385 1382 1379 1376 1374 1374 1373 1373 1376 1381 1390 1396 1402 1410 1419 1431 1441 1451 1458 1465 1470 1475 1480 1485 1490 1494
1439 1437 1433 1429 1425 1420 1417 1412 1407 1403 1399 1395 1393 1391 1389 1386 1381 1379 1377 1376 1377 1382 1391 1400 1406 1414 1422 1429 1438 1447 1454 1462 1468 1474 1479 1484 1489 1493
1441 1438 1435 1432 1428 1424 1420 1416 1413 1410 1407 1404 1402 1399 1396 1393 1389 1386 1384 1383 1383 1386 1394 1402 1410 1418 1425 1432 1438 1445 1452 1458 1465 1471 1477 1482 1486 1489
1445 1441 1438 1434 1431 1428 1425 1422 1419 1416 1414 1411 1409 1406 1403 1400 1397 1395 1394 1393 1391 1394 1400 1406 1412 1418 1425 1431 1437 1444 1450 1457 1463 1469 1474 1478 1482 1485
1448 1445 1442 1439 1436 1433 1431 1428 1425 1422 1420 1418 1416 1414 1411 1409 1407 1405 1404 1404 1404 1404 1406 1411 1416 1420 1424 1431 1438 1443 1449 1455 1461 1466 1471 1475 1478 1481
1451 1449 1446 1443 1440 1437 1435 1432 1430 1428 1426 1424 1422 1421 1419 1418 1416 1415 1414 1414 1415 1416 1417 1419 1421 1425 1427 1433 1442 1448 1451 1455 1459 1463 1467 1471 1474 1477
1454 1451 1449 1446 1443 1441 1438 1435 1433 1432 1430 1428 1427 1426 1425 1424 1424 1423 1423 1424 1424 1425 1426 1428 1429 1432 1434 1437 1441 1447 1451 1454 1457 1460 1464 1467 1471 1473
1455 1453 1450 1448 1445 1443 1440 1438 1436 1434 1433 1431 1430 1430 1429 1429 1429 1428 1429 1430 1430 1431 1431 1432 1433 1435 1437 1440 1443 1446 1450 1453 1455 1458 1460 1464 1467 1468
1456 1454 1451 1449 1447 1444 1442 1440 1438 1436 1435 1433 1432 1432 1432 1431 1431 1431 1432 1432 1432 1433 1433 1434 1435 1436 1438 1440 1442 1445 1448 1451 1453 1455 1458 1460 1462 1464
1455 1453 1451 1449 1447 1445 1444 1442 1440 1438 1437 1436 1434 1433 1432 1432 1432 1432 1432 1433 1433 1434 1434 1435 1436 1437 1438 1440 1442 1444 1447 1449 1451 1453 1455 1457 1459 1460